Location: O'Brien
(30.0517°N, 82.9900°W)
Time: 18:16:31
(UTC-04:00)

ISS - Visible Passes

Search period start: 15 October 2019 00:00
Search period end: 25 October 2019 00:00
Orbit: 411 x 421 km, 51.6° (Epoch: 15 October)

Date Brightness Start Highest point End Pass type
(mag) Time Alt. Az. Time Alt. Az. Time Alt. Az.
20 Oct -0.6 06:59:15 10° SSE 07:01:05 14° SE 07:02:54 10° E visible
22 Oct -2.9 06:57:10 10° SSW 07:00:25 51° SE 07:03:42 10° NE visible
23 Oct -1.5 06:09:10 10° S 06:11:57 24° SE 06:14:45 10° ENE visible
24 Oct -0.5 05:23:58 12° ESE 05:23:58 12° ESE 05:25:03 10° E visible
24 Oct -3.2 06:56:56 11° WSW 06:59:58 39° NW 07:03:09 10° NNE visible
